CFG621 LEST-LPFR

Flight info

Callsign CFG621
Flight time 1h 1m
Altitude 39000
Route DEMOS DCT XAMAX DCT SOTEX
Aircraft A333/H-SDE3GHIJ2J3J5M1RVWXY/LB2D1

Departure

Time 2026-05-05 21:44
Airport Santiago-Rosalía de Castro Airport (LEST)

Arrival

Time 2026-05-05 22:46
Airport Faro - Gago Coutinho International Airport (LPFR)
Time Latitude Longitude Altitude Speed Heading
2026-05-05 21:05 42.89652 -8.41853 1208 ft 0 kts 256°
2026-05-05 21:34 42.89652 -8.41852 1208 ft 0 kts 256°
2026-05-05 21:34 42.89652 -8.41853 1208 ft 0 kts 256°
2026-05-05 21:34 42.89655 -8.41839 1209 ft 2 kts 247°
2026-05-05 21:35 42.89662 -8.41821 1209 ft 2 kts 233°
2026-05-05 21:35 42.89672 -8.41806 1209 ft 2 kts 222°
2026-05-05 21:35 42.89684 -8.41794 1209 ft 2 kts 210°
2026-05-05 21:35 42.89697 -8.41785 1209 ft 2 kts 197°
2026-05-05 21:36 42.89712 -8.41781 1209 ft 2 kts 185°
2026-05-05 21:36 42.89718 -8.41780 1209 ft 2 kts 180°
2026-05-05 21:36 42.89729 -8.41781 1209 ft 2 kts 171°
2026-05-05 21:36 42.89743 -8.41785 1208 ft 2 kts 165°
2026-05-05 21:37 42.89755 -8.41790 1208 ft 0 kts 166°
2026-05-05 21:37 42.89756 -8.41790 1208 ft 0 kts 166°
2026-05-05 21:40 42.89747 -8.41787 1208 ft 3 kts 166°
2026-05-05 21:41 42.89683 -8.41762 1210 ft 15 kts 165°
2026-05-05 21:41 42.89546 -8.41716 1213 ft 23 kts 168°
2026-05-05 21:41 42.89391 -8.41664 1217 ft 22 kts 165°
2026-05-05 21:41 42.89248 -8.41614 1220 ft 20 kts 169°
2026-05-05 21:42 42.89119 -8.41573 1223 ft 18 kts 166°
2026-05-05 21:42 42.89002 -8.41533 1225 ft 17 kts 166°
2026-05-05 21:42 42.88869 -8.41488 1225 ft 23 kts 167°
2026-05-05 21:42 42.88701 -8.41432 1222 ft 25 kts 167°
2026-05-05 21:43 42.88522 -8.41373 1215 ft 24 kts 166°
2026-05-05 21:43 42.88404 -8.41328 1210 ft 14 kts 157°
2026-05-05 21:43 42.88377 -8.41189 1199 ft 19 kts 73°
2026-05-05 21:43 42.88470 -8.41126 1200 ft 14 kts 350°
2026-05-05 21:44 42.88709 -8.41205 1211 ft 73 kts 346°
2026-05-05 21:44 42.89490 -8.41469 1212 ft 153 kts 348°
2026-05-05 21:44 42.90636 -8.41891 1714 ft 174 kts 341°
2026-05-05 21:44 42.91606 -8.42382 3069 ft 142 kts 339°
2026-05-05 21:45 42.92427 -8.42887 4068 ft 136 kts 340°
2026-05-05 21:45 42.93265 -8.43382 5038 ft 134 kts 340°
2026-05-05 21:45 42.94115 -8.43884 5844 ft 143 kts 339°
2026-05-05 21:45 42.95147 -8.44577 5803 ft 214 kts 332°
2026-05-05 21:46 42.96637 -8.45932 5615 ft 298 kts 325°
2026-05-05 21:46 42.98409 -8.47979 6023 ft 355 kts 318°
2026-05-05 21:46 43.00006 -8.50174 8644 ft 338 kts 315°
2026-05-05 21:46 43.01495 -8.52848 9083 ft 376 kts 300°
2026-05-05 21:47 43.02586 -8.55948 10559 ft 362 kts 296°
2026-05-05 21:47 43.03434 -8.59095 11923 ft 351 kts 289°
2026-05-05 21:47 43.03870 -8.62237 13210 ft 322 kts 277°
2026-05-05 21:47 43.03743 -8.65069 14288 ft 299 kts 260°
2026-05-05 21:48 43.02963 -8.67649 15279 ft 295 kts 239°
2026-05-05 21:48 43.01507 -8.69764 14986 ft 338 kts 215°
2026-05-05 21:48 42.99250 -8.70881 14522 ft 349 kts 187°
2026-05-05 21:48 42.96843 -8.71094 14266 ft 342 kts 182°
2026-05-05 21:49 42.94492 -8.71158 13972 ft 335 kts 180°
2026-05-05 21:49 42.92202 -8.71072 13727 ft 331 kts 178°
2026-05-05 21:49 42.89867 -8.70938 14407 ft 334 kts 178°
2026-05-05 21:49 42.87609 -8.70799 15433 ft 326 kts 178°
2026-05-05 21:50 42.85332 -8.70656 16074 ft 331 kts 178°
2026-05-05 21:50 42.83020 -8.70510 16232 ft 336 kts 178°
2026-05-05 21:50 42.80615 -8.70359 16521 ft 347 kts 178°
2026-05-05 21:50 42.78278 -8.70211 17511 ft 339 kts 178°
2026-05-05 21:51 42.75885 -8.70061 18125 ft 344 kts 178°
2026-05-05 21:51 42.73488 -8.69911 18719 ft 349 kts 178°
2026-05-05 21:51 42.71049 -8.69756 19358 ft 353 kts 178°
2026-05-05 21:51 42.68613 -8.69603 19991 ft 355 kts 179°
2026-05-05 21:52 42.63626 -8.69291 21154 ft 362 kts 179°
2026-05-05 21:52 42.61095 -8.69132 21702 ft 366 kts 180°
2026-05-05 21:52 42.58568 -8.68975 22276 ft 368 kts 180°
2026-05-05 21:53 42.56022 -8.68815 22819 ft 371 kts 180°
2026-05-05 21:53 42.53422 -8.68653 23371 ft 374 kts 180°
2026-05-05 21:53 42.50837 -8.68491 23880 ft 377 kts 180°
2026-05-05 21:53 42.48204 -8.68329 24423 ft 379 kts 180°
2026-05-05 21:54 42.45576 -8.68164 24939 ft 382 kts 181°
2026-05-05 21:54 42.42895 -8.67999 25459 ft 384 kts 180°
2026-05-05 21:54 42.40249 -8.67834 25933 ft 388 kts 181°
2026-05-05 21:54 42.37548 -8.67665 26460 ft 390 kts 181°
2026-05-05 21:55 42.34834 -8.67497 26965 ft 392 kts 181°
2026-05-05 21:55 42.32086 -8.67326 27462 ft 395 kts 181°
2026-05-05 21:55 42.29344 -8.67156 27968 ft 397 kts 181°
2026-05-05 21:55 42.26614 -8.66989 28476 ft 398 kts 181°
2026-05-05 21:56 42.23837 -8.66816 28932 ft 401 kts 181°
2026-05-05 21:56 42.21017 -8.66643 29398 ft 404 kts 181°
2026-05-05 21:56 42.18219 -8.66469 29902 ft 406 kts 181°
2026-05-05 21:56 42.15370 -8.66293 30352 ft 409 kts 181°
2026-05-05 21:57 42.12522 -8.66118 30764 ft 412 kts 181°
2026-05-05 21:57 42.09641 -8.65941 31163 ft 416 kts 181°
2026-05-05 21:57 42.06699 -8.65761 31291 ft 426 kts 181°
2026-05-05 21:57 42.03747 -8.65577 31757 ft 426 kts 181°
2026-05-05 21:58 42.00784 -8.65394 32391 ft 422 kts 181°
2026-05-05 21:58 41.97900 -8.65218 32893 ft 421 kts 181°
2026-05-05 21:58 41.94952 -8.65038 33346 ft 420 kts 181°
2026-05-05 21:58 41.92061 -8.64859 33832 ft 419 kts 181°
2026-05-05 21:59 41.89142 -8.64681 34326 ft 417 kts 181°
2026-05-05 21:59 41.86264 -8.64505 34711 ft 416 kts 181°
2026-05-05 21:59 41.83366 -8.64328 35065 ft 415 kts 181°
2026-05-05 21:59 41.80492 -8.64153 35391 ft 415 kts 181°
2026-05-05 22:00 41.77620 -8.63978 35646 ft 415 kts 181°
2026-05-05 22:00 41.74733 -8.63803 35828 ft 418 kts 181°
2026-05-05 22:00 41.71847 -8.63627 36013 ft 420 kts 181°
2026-05-05 22:00 41.68903 -8.63449 36226 ft 423 kts 181°
2026-05-05 22:01 41.65971 -8.63270 36466 ft 425 kts 181°
2026-05-05 22:01 41.63010 -8.63091 36669 ft 429 kts 181°
2026-05-05 22:01 41.60019 -8.62910 36906 ft 431 kts 181°
2026-05-05 22:01 41.57005 -8.62726 37080 ft 429 kts 181°
2026-05-05 22:02 41.54069 -8.62547 37039 ft 424 kts 181°
2026-05-05 22:02 41.48169 -8.62193 37088 ft 432 kts 181°
2026-05-05 22:03 41.42028 -8.61824 37094 ft 449 kts 181°
2026-05-05 22:03 41.35728 -8.61443 37088 ft 463 kts 181°
2026-05-05 22:04 41.29199 -8.61051 37092 ft 474 kts 181°
2026-05-05 22:04 41.22550 -8.60651 37088 ft 483 kts 181°
2026-05-05 22:05 41.15799 -8.60247 37076 ft 489 kts 181°
2026-05-05 22:05 41.08991 -8.59840 37074 ft 493 kts 181°
2026-05-05 22:06 41.02133 -8.59431 37075 ft 495 kts 181°
2026-05-05 22:06 40.95248 -8.59022 37082 ft 496 kts 181°
2026-05-05 22:07 40.88364 -8.58613 37075 ft 497 kts 181°
2026-05-05 22:07 40.81442 -8.58202 37074 ft 495 kts 181°
2026-05-05 22:08 40.74611 -8.57798 37076 ft 492 kts 181°
2026-05-05 22:08 40.67793 -8.57396 37077 ft 491 kts 181°
2026-05-05 22:09 40.60972 -8.56995 37068 ft 491 kts 181°
2026-05-05 22:09 40.54168 -8.56595 37075 ft 491 kts 181°
2026-05-05 22:10 40.47345 -8.56195 37078 ft 490 kts 182°
2026-05-05 22:10 40.40545 -8.55797 37076 ft 490 kts 182°
2026-05-05 22:11 40.33766 -8.55401 37085 ft 489 kts 182°
2026-05-05 22:11 40.26991 -8.55007 37083 ft 488 kts 182°
2026-05-05 22:12 40.20196 -8.54612 37072 ft 488 kts 182°
2026-05-05 22:12 40.13426 -8.54218 37066 ft 487 kts 182°
2026-05-05 22:13 40.06655 -8.53826 37072 ft 488 kts 182°
2026-05-05 22:13 39.99907 -8.53031 37079 ft 490 kts 176°
2026-05-05 22:14 39.93169 -8.51772 37071 ft 490 kts 176°
2026-05-05 22:14 39.86424 -8.50518 37070 ft 490 kts 176°
2026-05-05 22:15 39.79663 -8.49264 37065 ft 490 kts 176°
2026-05-05 22:15 39.72935 -8.48019 37065 ft 489 kts 176°
2026-05-05 22:16 39.66217 -8.46778 37067 ft 490 kts 177°
2026-05-05 22:16 39.59497 -8.45540 37071 ft 489 kts 176°
2026-05-05 22:17 39.52731 -8.44294 37067 ft 489 kts 177°
2026-05-05 22:17 39.46010 -8.43061 37059 ft 489 kts 177°
2026-05-05 22:18 39.39330 -8.41836 37058 ft 487 kts 177°
2026-05-05 22:18 39.32587 -8.40603 37070 ft 489 kts 177°
2026-05-05 22:19 39.25890 -8.39380 37068 ft 488 kts 177°
2026-05-05 22:19 39.19181 -8.38159 37060 ft 487 kts 177°
2026-05-05 22:20 39.12472 -8.36938 37060 ft 487 kts 177°
2026-05-05 22:20 39.05798 -8.35727 37062 ft 486 kts 178°
2026-05-05 22:21 38.99106 -8.34514 37054 ft 484 kts 178°
2026-05-05 22:21 38.92454 -8.33313 37046 ft 485 kts 178°
2026-05-05 22:22 38.85775 -8.32108 37055 ft 485 kts 178°
2026-05-05 22:22 38.79086 -8.30903 37052 ft 484 kts 178°
2026-05-05 22:23 38.72439 -8.29708 37044 ft 486 kts 178°
2026-05-05 22:23 38.65734 -8.28505 37045 ft 484 kts 178°
2026-05-05 22:24 38.59093 -8.27314 37047 ft 485 kts 178°
2026-05-05 22:24 38.52381 -8.26116 37052 ft 485 kts 178°
2026-05-05 22:25 38.45728 -8.24928 37051 ft 483 kts 178°
2026-05-05 22:25 38.39058 -8.23740 37056 ft 485 kts 178°
2026-05-05 22:26 38.32412 -8.22558 37044 ft 483 kts 178°
2026-05-05 22:26 38.25838 -8.20584 36855 ft 488 kts 167°
2026-05-05 22:26 38.22678 -8.19235 36853 ft 468 kts 167°
2026-05-05 22:27 38.19675 -8.17969 36644 ft 454 kts 168°
2026-05-05 22:27 38.16660 -8.16707 35964 ft 453 kts 168°
2026-05-05 22:27 38.13670 -8.15457 35185 ft 456 kts 168°
2026-05-05 22:27 38.10651 -8.14194 34413 ft 457 kts 168°
2026-05-05 22:28 38.07657 -8.12944 33581 ft 457 kts 168°
2026-05-05 22:28 38.04649 -8.11687 32623 ft 459 kts 168°
2026-05-05 22:28 38.01604 -8.10417 31650 ft 461 kts 167°
2026-05-05 22:28 37.98589 -8.09160 30686 ft 461 kts 167°
2026-05-05 22:29 37.95552 -8.07895 29712 ft 462 kts 167°
2026-05-05 22:29 37.92507 -8.06629 28643 ft 465 kts 167°
2026-05-05 22:29 37.89432 -8.05351 27517 ft 469 kts 166°
2026-05-05 22:29 37.86340 -8.04067 26377 ft 472 kts 166°
2026-05-05 22:30 37.83189 -8.02759 25172 ft 475 kts 165°
2026-05-05 22:30 37.80091 -8.01475 23977 ft 478 kts 165°
2026-05-05 22:30 37.76927 -8.00147 23050 ft 472 kts 164°
2026-05-05 22:30 37.73933 -7.98821 21567 ft 455 kts 163°
2026-05-05 22:31 37.71010 -7.97671 20384 ft 435 kts 165°
2026-05-05 22:31 37.68189 -7.96526 19795 ft 414 kts 165°
2026-05-05 22:31 37.65522 -7.95435 18943 ft 405 kts 164°
2026-05-05 22:31 37.62845 -7.94337 17589 ft 409 kts 164°
2026-05-05 22:32 37.60168 -7.93235 16249 ft 410 kts 163°
2026-05-05 22:32 37.57470 -7.92123 15048 ft 406 kts 163°
2026-05-05 22:32 37.54861 -7.91047 14499 ft 385 kts 163°
2026-05-05 22:32 37.52396 -7.90032 14109 ft 364 kts 163°
2026-05-05 22:33 37.50034 -7.89060 13782 ft 344 kts 163°
2026-05-05 22:33 37.47830 -7.88154 13539 ft 325 kts 163°
2026-05-05 22:33 37.45736 -7.87292 13257 ft 312 kts 163°
2026-05-05 22:33 37.43687 -7.86453 12672 ft 309 kts 163°
2026-05-05 22:34 37.41656 -7.85620 12095 ft 307 kts 163°
2026-05-05 22:34 37.39627 -7.84788 11535 ft 304 kts 163°
2026-05-05 22:34 37.37631 -7.83970 10992 ft 301 kts 163°
2026-05-05 22:34 37.35661 -7.83164 10435 ft 299 kts 162°
2026-05-05 22:35 37.33700 -7.82362 9884 ft 297 kts 162°
2026-05-05 22:35 37.31753 -7.81565 9352 ft 295 kts 162°
2026-05-05 22:35 37.29796 -7.80764 8798 ft 292 kts 162°
2026-05-05 22:35 37.27883 -7.79983 8275 ft 290 kts 162°
2026-05-05 22:36 37.25963 -7.79199 7763 ft 287 kts 162°
2026-05-05 22:36 37.24088 -7.78433 7262 ft 285 kts 162°
2026-05-05 22:36 37.22211 -7.77668 6744 ft 283 kts 161°
2026-05-05 22:36 37.20376 -7.76919 6444 ft 272 kts 161°
2026-05-05 22:37 37.18617 -7.76202 6336 ft 256 kts 161°
2026-05-05 22:37 37.16978 -7.75535 6268 ft 241 kts 161°
2026-05-05 22:37 37.15424 -7.74902 6226 ft 226 kts 161°
2026-05-05 22:37 37.13970 -7.74310 6229 ft 214 kts 161°
2026-05-05 22:38 37.12588 -7.73747 6110 ft 205 kts 161°
2026-05-05 22:38 37.11239 -7.73198 5812 ft 205 kts 161°
2026-05-05 22:38 37.09875 -7.72644 5521 ft 205 kts 161°
2026-05-05 22:38 37.08528 -7.72097 5274 ft 202 kts 161°
2026-05-05 22:39 37.07220 -7.71567 5069 ft 192 kts 161°
2026-05-05 22:39 37.05941 -7.71047 4605 ft 197 kts 161°
2026-05-05 22:39 37.04635 -7.70517 4159 ft 198 kts 161°
2026-05-05 22:39 37.03329 -7.69987 3752 ft 197 kts 161°
2026-05-05 22:40 37.02038 -7.69463 3332 ft 197 kts 160°
2026-05-05 22:40 37.00714 -7.68927 2967 ft 205 kts 160°
2026-05-05 22:40 36.99316 -7.68857 2929 ft 203 kts 196°
2026-05-05 22:40 36.98180 -7.69807 2919 ft 197 kts 235°
2026-05-05 22:41 36.97766 -7.71382 2923 ft 188 kts 275°
2026-05-05 22:41 36.98039 -7.72945 2965 ft 185 kts 287°
2026-05-05 22:41 36.98295 -7.74507 2936 ft 185 kts 284°
2026-05-05 22:41 36.98529 -7.76093 2941 ft 185 kts 283°
2026-05-05 22:42 36.98745 -7.77685 2938 ft 185 kts 283°
2026-05-05 22:42 36.98963 -7.79229 2966 ft 175 kts 283°
2026-05-05 22:42 36.99165 -7.80757 2943 ft 176 kts 283°
2026-05-05 22:42 36.99386 -7.82240 2943 ft 175 kts 283°
2026-05-05 22:43 36.99601 -7.83711 2958 ft 168 kts 283°
2026-05-05 22:43 36.99809 -7.85156 2761 ft 170 kts 284°
2026-05-05 22:43 37.00018 -7.86615 2244 ft 173 kts 284°
2026-05-05 22:43 37.00225 -7.88075 1750 ft 167 kts 285°
2026-05-05 22:44 37.00425 -7.89457 1230 ft 159 kts 285°
2026-05-05 22:44 37.00616 -7.90780 729 ft 152 kts 284°
2026-05-05 22:44 37.00784 -7.92008 471 ft 133 kts 283°
2026-05-05 22:44 37.00901 -7.93136 578 ft 128 kts 283°
2026-05-05 22:45 37.01080 -7.94240 334 ft 130 kts 287°
2026-05-05 22:45 37.01251 -7.95316 157 ft 126 kts 285°
2026-05-05 22:45 37.01416 -7.96392 32 ft 121 kts 283°
2026-05-05 22:45 37.01516 -7.97099 24 ft 57 kts 280°
2026-05-05 22:46 37.01587 -7.97596 25 ft 50 kts 279°
2026-05-05 22:46 37.01643 -7.97950 28 ft 37 kts 287°
2026-05-05 22:46 37.01746 -7.98181 30 ft 22 kts 310°
2026-05-05 22:46 37.01830 -7.98222 30 ft 9 kts 47°
2026-05-05 22:47 37.01841 -7.98116 31 ft 14 kts 97°
2026-05-05 22:47 37.01823 -7.97975 33 ft 18 kts 100°
2026-05-05 22:47 37.01798 -7.97799 31 ft 23 kts 99°
2026-05-05 22:47 37.01780 -7.97670 31 ft 10 kts 100°
2026-05-05 22:48 37.01765 -7.97567 29 ft 7 kts 99°
2026-05-05 22:48 37.01760 -7.97530 29 ft 3 kts 99°
2026-05-05 22:48 37.01753 -7.97476 28 ft 8 kts 99°
2026-05-05 22:48 37.01740 -7.97376 28 ft 13 kts 99°
2026-05-05 22:49 37.01722 -7.97257 28 ft 16 kts 101°
2026-05-05 22:49 37.01696 -7.97089 27 ft 21 kts 100°
2026-05-05 22:49 37.01681 -7.96967 27 ft 10 kts 91°
2026-05-05 22:49 37.01720 -7.96911 28 ft 7 kts 22°
2026-05-05 22:50 37.01726 -7.96908 28 ft 0 kts 22°
2026-05-05 22:50 37.01736 -7.96903 28 ft 3 kts 20°
2026-05-05 22:50 37.01755 -7.96896 28 ft 0 kts 17°
2026-05-05 22:50 37.01756 -7.96896 28 ft 0 kts 17°
2026-05-05 22:51 37.01770 -7.96890 29 ft 4 kts 15°
2026-05-05 22:51 37.01795 -7.96881 29 ft 4 kts 19°
2026-05-05 22:51 37.01831 -7.96868 30 ft 5 kts 12°
2026-05-05 22:51 37.01865 -7.96860 30 ft 4 kts 10°
2026-05-05 22:52 37.01880 -7.96856 30 ft 0 kts 10°
2026-05-05 22:52 37.01893 -7.96853 30 ft 1 kts 10°
2026-05-05 22:52 37.01901 -7.96851 30 ft 2 kts 11°
2026-05-05 22:52 37.01904 -7.96851 30 ft 0 kts 11°
2026-05-05 22:53 37.01909 -7.96849 30 ft 0 kts 11°